Tulsa, OK

3:04 PM CST on January 23, 2018 (GMT -0600)
Tulsa International

Weather History for KTUL - November, 2013

Change the Weather History Date:

Saturday, November 9, 2013

  Actual Average Record
Temperature  
Mean Temperature 58 °F 53 °F  
Max Temperature 68 °F 64 °F 84 °F (2002)
Min Temperature 47 °F 43 °F 23 °F (1955)
Degree Days  
Heating Degree Days 7 12  
Month to date heating degree days 96 95  
Since 1 July heating degree days 279 281  
Growing Degree Days 9 (Base 50)    
Moisture  
Dew Point 40 °F    
Average Humidity 52    
Maximum Humidity 71    
Minimum Humidity 32    
Precipitation  
Precipitation 0.00 in 0.10 in 0.95 in (1916)
Month to date precipitation 1.27 0.98  
Year to date precipitation 30.67 36.65  
Sea Level Pressure  
Sea Level Pressure 30.14 in    
Wind  
Wind Speed 8 mph (SSE)    
Max Wind Speed 17 mph    
Max Gust Speed 22 mph    
Visibility 10 miles    
Events      
T = Trace of Precipitation, MM = Missing Value Source: NWS Daily Summary

Daily Weather History Graph

Daily Weather History Graph

Search for Another Location

Airport or City:

Trip Planner

Search our weather history database for the weather conditions in past years. The results will help you decide how hot, cold, wet, or windy it might be!

Date:

Astronomy

Nov. 09, 2013 Rise Set
Actual Time 6:54 AM CST 5:19 PM CST
Civil Twilight 6:27 AM CST 5:46 PM CST
Nautical Twilight 5:56 AM CST 6:17 PM CST
Astronomical Twilight 5:26 AM CST 6:47 PM CST
Moon 12:34 PM CST (11/9) 11:48 PM CST (11/9)
Length of Visible Light 11h 19m
Length of Day
10h 25m
Waxing Crescent, 44% of the Moon is Illuminated
Nov 9
Waxing Crescent
Nov 9
First Quarter
Nov 17
Full
Nov 25
Last Quarter
Dec 2
New

Hourly Weather History & Observations

Time (CST) Temp. Dew Point Humidity Pressure Visibility Wind Dir Wind Speed Gust Speed Precip Events Conditions
12:53 AM 53.1 °F 37.9 °F 57% 30.06 in 10.0 mi South 16.1 mph - N/A   Mostly Cloudy
1:53 AM 52.0 °F 37.9 °F 59% 30.05 in 10.0 mi South 15.0 mph - N/A   Partly Cloudy
2:53 AM 52.0 °F 39.0 °F 61% 30.05 in 10.0 mi South 12.7 mph - N/A   Clear
3:53 AM 48.9 °F 39.0 °F 69% 30.05 in 10.0 mi SE 6.9 mph - N/A   Clear
4:53 AM 50.0 °F 39.9 °F 68% 30.07 in 10.0 mi SSE 8.1 mph - N/A   Clear
5:53 AM 51.1 °F 39.9 °F 66% 30.09 in 10.0 mi SSE 6.9 mph - N/A   Mostly Cloudy
6:53 AM 52.0 °F 41.0 °F 66% 30.11 in 10.0 mi SSE 6.9 mph - N/A   Mostly Cloudy
7:53 AM 54.0 °F 42.1 °F 64% 30.13 in 10.0 mi SSE 6.9 mph - N/A   Partly Cloudy
8:53 AM 55.9 °F 42.1 °F 60% 30.15 in 10.0 mi South 9.2 mph - N/A   Partly Cloudy
9:53 AM 60.1 °F 41.0 °F 49% 30.15 in 10.0 mi South 9.2 mph - N/A   Partly Cloudy
10:53 AM 62.1 °F 39.0 °F 43% 30.15 in 10.0 mi SSW 8.1 mph - N/A   Partly Cloudy
11:53 AM 64.0 °F 37.0 °F 37% 30.14 in 10.0 mi Variable 6.9 mph - N/A   Partly Cloudy
12:53 PM 66.9 °F 36.0 °F 32% 30.12 in 10.0 mi Variable 4.6 mph - N/A   Scattered Clouds
1:53 PM 66.9 °F 35.1 °F 31% 30.11 in 10.0 mi South 6.9 mph - N/A   Mostly Cloudy
2:53 PM 66.9 °F 39.9 °F 37% 30.12 in 10.0 mi SSE 11.5 mph - N/A   Mostly Cloudy
3:53 PM 66.0 °F 42.1 °F 42% 30.13 in 10.0 mi SE 12.7 mph - N/A   Mostly Cloudy
4:53 PM 63.0 °F 42.1 °F 46% 30.14 in 10.0 mi SSE 10.4 mph - N/A   Mostly Cloudy
5:53 PM 59.0 °F 42.1 °F 53% 30.16 in 10.0 mi SSE 5.8 mph - N/A   Partly Cloudy
6:53 PM 57.9 °F 43.0 °F 58% 30.18 in 10.0 mi SSE 9.2 mph - N/A   Clear
7:53 PM 55.0 °F 44.1 °F 67% 30.21 in 10.0 mi ESE 4.6 mph - N/A   Mostly Cloudy
8:53 PM 55.9 °F 43.0 °F 62% 30.23 in 10.0 mi South 9.2 mph - N/A   Scattered Clouds
9:53 PM 54.0 °F 42.1 °F 64% 30.25 in 10.0 mi South 3.5 mph - N/A   Scattered Clouds
10:53 PM 53.1 °F 42.1 °F 66% 30.26 in 10.0 mi Calm Calm - N/A   Scattered Clouds
11:53 PM 50.0 °F 42.1 °F 74% 30.27 in 10.0 mi Calm Calm - N/A   Partly Cloudy